EHI
0 0 0 0 0 0 0 0 0 0 0 0 0 0 0 0 0 0 0 0 0 0 0 0 0 0 0 0 0 0 0 0 0 0 0 0 0 0 0 0 0 0 0
0 0 0 0 0 0 0 0 0 0 0 0 0 0 0 0 0 0 0 0 0 0 0 0 0 0 0 0 0 0 0 0 0 0 0 0 0 0 0 0 0 0 0
0 0 0 0 0 0 0 0 0 0 0 0 0 0 0 0 0 0 0 0 0 0 0 0 0 0 0 0 0 0 0 0 0 0 0 0 0 0 0 0 0 0 0
0 0 0 0 0 0 0 0 0 0 0 0 0 0 0 0 0 0 0 0 0 0 0 0 0 0 0 0 0 0 0 0 0 0 0 0 0 0 0 0 0 0 0
0 0 0 0 0 0 0 0 0 0 0 0 0 0 0 0 0 0 0 0 0 0 0 0 0 0 0 0 0 0 0 0 0 0 0 0 0 0 0 0 0 0 0
0 0 0 0 0 0 0 0 0 0 0 0 0 0 0 0 0 0 0 0 0 0 0 0 0 0 0 0 0 0 0 0 0 0 0 0 0 0 0 0 0 0 0
0 0 0 0 0 0 0 0 0 0 0 0 0 0 0 0 0 0 0 0 0 0 0 0 0 0 0 0 0 0 0 0 0 0 0 0 0 0 0 0 0 0 0
0 0 0 0 0 0 0 0 0 0 0 0 0 0 0 0 0 0 0 0 0 0 0 0 0 0 0 0 0 0 0 0 0 0 0 0 0 0 0 0 0 0 0
0 0 0 0 0 0 0 0 0 0 0 0 0 0 0 0 0 0 0 0 0 0 0 0 0 0 0 0 0 0 0 0 0 0 0 0 0 0 0 0 0 0 0
0 0 0 0 0 0 0 0 0 0 0 0 0 0 0 0 0 0 0 0 0 0 0 0 0 0 0 0 0 0 0 0 0 0 0 0 0 0 0 0 0 0 0
0 0 0 0 0 0 0 0 0 0 0 0 0 0 0 0 0 0 0 0 0 0 0 0 0 0 0 0 0 0 0 0 0 0 0 0 0 0 0 0 0 0 0
0 0 0 0 0 0 0 0 0 0 0 0 0 0 0 0 0 0 0 0 0 0 0 0 0 0 0 0 0 0 0 0 0 0 0 0 0 0 0 0 0 0 0
0 0 0 0 0 0 0 0 0 0 0 0 0 0 0 0 0 0 0 0 0 0 0 0 0 0 0 0 0 0 0 0 0 0 0 0 0 0 0 0 0 0 0
0 0 0 0 0 0 0 0 0 0 0 0 0 0 0 0 0 0 0 0 0 0 0 0 0 0 0 0 0 0 0 0 0 0 0 0 0 0 0 0 0 0 0
0 0 0 0 0 0 0 0 0 0 0 0 0 0 0 0 0 0 0 0 0 0 0 0 0 0 0 0 0 0 0 0 0 0 0 0 0 0 0 0 0 0 0
0 0 0 0 0 0 0 0 0 0 0 0 0 0 0 0 0 0 0 0 0 0 0 0 0 0 0 0 0 0 0 0 0 0 0 0 0 0 0 0 0 0 0
0 0 0 0 0 0 0 0 0 0 0 0 0 0 0 0 0 0 0 0 0 0 0 0 0 0 0 0 0 0 0 0 0 0 0 0 0 0 0 0 0 0 0
0 0 0 0 0 0 0 0 0 0 0 0 0 0 0 0 0 0 0 0 0 0 0 0 0 0 0 0 0 0 0 0 0 0 0 0 0 0 0 0 0 0 0
0 0 0 0 0 0 0 0 0 0 0 0 0 0 0 0 0 0 0 0 0 0 0 0 0 0 0 0 0 0 0 0 0 0 0 0 0 0 0 0 0 0 0
0 0 0 0 0 0 0 0 0 0 0 0 0 0 0 0 0 0 0 0 0 0 0 0 0 0 0 0 0 0 0 0 0 0 0 0 0 0 0 0 0 0 0
0 0 0 0 0 0 0 0 0 0 0 0 0 0 0 0 0 0 0 0 0 0 0 0 0 0 0 0 0 0 0 0 0 0 0 0 0 0 0 0 0 0 0
0 0 0 0 0 0 0 0 0 0 0 0 0 0 0 0 0 0 0 0 0 0 0 0 0 0 0 0 0 0 0 0 0 0 0 0 0 0 0 0 0 0 0
0 0 0 0 0 0 0 0 0 0 0 0 0 0 0 0 0 0 0 0 0 0 0 0 0 0 0 0 0 0 0 0 0 0 0 0 0 0 0 0 0 0 0
0 0 0 0 0 0 0 0 0 0 0 0 0 0 0 0 0 0 0 0 0 0 0 0 0 0 0 0 0 0 0 0 0 0 0 0 0 0 0 0 0 0 0
0 0 0 0 0 0 0 0 0 0 0 0 0 0 0 0 0 0 0 0 0 0 0 0 0 0 0 0 0 0 0 0 0 0 0 0 0 0 0 0 0 0 0
0 0 0 0 0 0 0 0 0 0 0 0 0 0 0 0 0 0 0 0 0 0 0 0 0 0 0 0 0 0 0 0 0 0 0 0 0 0 0 0 0 0 0
Wind_Speed
10 13 20 17 16 14 13 12 11 10 10 11 11 11 12 12 13 13 14 15 16 16 16 17 18 18 19 19 20 20 20 20 19 19 20 22 22 23 23 23 20 14 23
13 15 21 19 17 15 13 12 11 11 10 10 11 11 11 12 12 13 13 14 15 15 15 16 16 17 18 18 18 18 18 18 18 18 19 18 20 22 22 22 21 15 22
15 16 17 20 18 16 15 13 12 11 11 10 10 10 10 11 11 12 12 13 13 14 14 14 15 15 16 17 17 17 16 16 17 17 17 10 12 20 21 21 21 21 21
16 15 15 20 19 17 16 14 13 12 11 11 10 10 10 10 11 11 11 12 12 12 13 13 13 14 15 15 16 15 15 15 16 15 8 8 9 18 20 20 20 20 20
14 14 16 22 20 18 17 15 14 13 12 11 10 10 10 10 10 10 10 10 11 11 11 11 12 12 13 14 14 14 14 13 14 10 6 7 7 16 19 19 19 19 19
13 13 16 22 20 19 18 16 15 14 13 12 11 10 10 10 10 9 9 9 9 9 10 10 10 11 11 12 13 13 12 12 10 4 5 6 6 15 18 18 18 19 19
12 13 16 22 21 20 18 17 16 15 14 13 12 11 10 10 9 9 8 8 8 8 8 8 8 9 9 10 11 12 11 10 6 4 5 5 8 16 17 18 18 18 18
11 13 15 22 21 20 19 18 17 16 15 14 12 11 11 10 9 9 8 7 7 6 6 6 7 7 8 8 9 10 10 9 7 5 4 5 12 16 17 17 17 18 18
10 12 13 12 16 20 20 19 18 17 16 15 13 12 11 11 10 9 8 7 6 5 5 5 5 5 6 7 8 8 7 8 5 3 6 4 12 15 16 16 17 17 18
9 10 13 12 11 10 12 18 18 18 17 16 14 13 12 11 10 9 8 7 6 5 4 3 2 2 3 4 5 6 5 6 4 4 3 5 13 14 14 15 16 16 16
10 9 12 13 12 11 10 15 16 17 17 16 13 14 11 5 5 6 7 8 7 6 4 3 1 1 2 2 1 3 3 2 2 2 1 7 12 13 13 14 14 15 15
14 12 10 13 13 12 11 10 7 8 8 8 7 7 5 5 6 8 10 10 9 7 6 5 5 5 4 1 1 2 1 2 2 1 2 8 11 12 13 13 14 14 15
14 12 11 10 12 12 8 9 6 6 6 7 9 9 6 5 4 4 4 5 5 7 4 6 5 4 3 1 1 1 0 1 1 1 2 7 9 11 12 13 13 14 14
13 15 12 11 10 11 9 8 8 7 7 7 9 12 8 5 5 5 4 5 5 4 5 4 4 5 4 4 3 2 1 1 1 0 2 7 9 10 11 12 12 13 14
16 16 14 13 12 10 9 7 8 8 8 8 8 10 10 6 6 6 5 5 6 5 5 5 5 5 4 4 3 3 3 2 2 2 2 8 10 10 11 12 12 13 13
17 17 15 15 13 11 10 9 7 7 7 8 8 9 11 8 7 6 6 6 6 5 5 5 5 4 4 3 4 4 4 4 3 3 3 5 10 11 12 12 12 13 13
14 15 16 15 14 14 12 11 8 7 8 8 8 10 11 9 9 8 7 6 6 6 6 5 5 3 3 4 4 5 4 4 4 4 4 3 4 9 13 13 13 13 14
12 15 16 15 15 14 12 11 7 7 8 8 8 9 12 11 10 9 7 7 7 6 5 5 4 4 4 4 4 4 4 4 5 5 5 4 4 4 8 13 14 15 15
14 13 15 15 15 14 12 9 8 7 8 8 8 8 11 13 12 9 8 7 8 6 6 7 6 5 5 5 5 5 4 4 5 6 6 6 6 5 5 10 16 16 17
13 12 14 14 13 12 10 8 7 8 8 8 8 9 11 12 13 10 8 9 9 7 7 7 7 6 5 4 5 5 5 5 5 6 7 6 5 7 6 7 6 10 17
11 11 13 14 13 11 10 11 11 12 9 8 8 11 12 12 14 12 9 10 10 10 10 10 7 7 6 4 2 3 5 7 9 7 6 6 6 7 7 7 5 5 6
10 10 11 13 14 13 11 10 8 7 7 7 7 10 13 14 15 14 13 11 11 9 11 12 9 7 6 7 5 3 4 4 8 10 7 7 7 6 7 9 7 7 6
8 10 10 11 13 14 12 6 5 5 5 8 10 11 13 15 15 14 16 12 12 12 12 14 12 13 10 9 7 7 6 7 3 3 7 8 7 6 6 6 8 8 9
6 8 9 10 11 12 12 10 12 12 14 15 10 9 10 13 14 16 15 16 14 12 13 14 14 11 10 8 7 7 5 5 5 3 3 6 8 8 8 8 8 8 9
3 5 7 8 9 10 11 12 12 13 12 7 8 10 12 12 14 15 16 15 16 13 14 13 14 13 12 11 8 6 6 5 4 5 5 4 5 6 7 8 7 7 9
1 2 4 6 7 8 10 11 13 14 11 9 10 10 10 9 11 15 15 15 15 14 14 14 12 14 13 13 10 8 8 7 9 8 9 7 5 5 7 7 7 7 7
Wind_Direction
141 152 155 151 149 144 138 131 124 117 110 103 97 92 86 83 79 75 71 69 66 63 61 58 57 58 58 54 50 48 47 46 46 46 41 39 45 47 45 43 43 34 38
141 151 156 154 152 149 144 138 133 126 120 113 106 100 94 88 83 78 75 71 68 65 62 60 58 57 57 55 52 49 47 47 46 47 41 28 34 44 43 41 40 38 37
144 150 158 156 155 153 149 145 141 135 129 122 115 108 101 95 90 85 80 76 72 68 64 61 59 58 56 55 53 50 48 48 48 48 37 13 16 41 42 39 38 37 35
148 150 160 159 158 156 155 152 149 144 138 131 125 118 110 104 98 92 86 81 76 72 67 63 59 58 56 54 53 50 49 50 51 49 29 10 3 35 39 37 35 35 33
150 153 161 161 161 161 160 158 155 151 146 140 134 127 120 113 105 99 93 87 82 77 72 66 61 57 55 53 50 47 47 51 54 43 24 7 351 29 36 34 31 31 31
154 153 160 164 165 165 165 163 161 158 154 148 143 137 130 123 115 107 101 95 89 82 76 70 63 57 54 51 48 44 43 52 59 38 32 9 346 24 31 30 27 26 26
158 152 160 168 169 169 169 168 167 164 160 156 153 148 141 134 127 120 112 103 95 86 79 71 64 57 52 48 44 40 37 43 73 53 43 4 360 23 25 25 22 21 21
158 151 161 173 173 173 174 173 172 170 166 164 161 157 152 146 140 134 127 118 108 98 86 75 65 53 47 44 40 35 34 36 52 37 54 7 11 18 20 20 17 15 15
160 154 160 174 176 177 178 178 177 175 173 170 168 166 162 157 153 148 142 136 127 115 100 84 70 51 39 38 35 30 28 33 58 40 40 4 10 13 15 14 12 10 9
166 162 162 173 175 176 178 182 181 180 179 176 174 172 170 167 163 161 157 156 150 143 131 114 85 50 26 25 26 21 18 31 48 56 46 359 8 8 9 8 7 5 4
177 176 169 175 177 176 176 187 184 184 184 180 177 178 174 166 162 172 173 172 172 171 170 167 181 253 255 253 342 357 12 16 41 68 88 2 2 0 1 1 360 358 357
187 185 181 179 177 176 182 178 176 180 178 172 163 170 176 188 176 176 177 182 186 190 195 202 224 242 250 253 287 311 23 6 20 24 10 357 353 351 352 352 351 350 350
189 185 187 186 177 177 178 169 176 177 172 177 173 172 186 186 164 161 158 182 192 200 208 209 227 229 229 176 254 271 139 350 321 2 339 336 339 340 341 341 342 341 341
190 192 189 187 181 178 174 172 176 178 177 183 182 176 182 177 172 175 176 176 185 191 201 196 213 208 209 217 220 252 270 248 264 267 285 311 320 325 327 329 330 330 331
194 192 191 188 186 180 175 177 181 181 178 179 181 180 178 176 180 183 189 184 187 185 185 202 214 208 205 217 221 227 241 256 257 260 277 294 301 307 310 314 317 318 319
196 193 190 191 188 183 184 183 185 183 176 180 183 185 182 180 182 186 190 189 191 190 186 193 206 205 206 206 222 232 233 240 241 246 241 275 289 293 296 299 303 306 308
196 191 190 192 190 189 190 189 189 186 182 186 185 188 190 187 185 187 191 190 192 188 188 193 209 201 210 213 219 231 230 229 236 248 249 234 254 276 283 286 289 293 296
195 190 190 191 194 194 193 193 193 192 191 192 189 190 194 194 189 188 192 193 187 184 185 188 197 192 209 212 219 227 221 216 228 239 240 233 225 240 266 275 281 284 287
196 188 187 188 192 194 192 192 197 197 199 195 194 193 195 196 195 193 195 192 184 185 188 196 196 193 201 208 214 220 219 221 227 237 234 230 224 221 221 258 270 277 281
191 187 184 186 188 188 189 193 199 209 208 202 200 199 194 197 197 197 196 195 187 187 192 195 196 196 199 198 216 226 222 223 224 228 232 232 224 222 222 230 246 267 273
180 184 183 185 187 187 193 199 203 209 208 208 205 201 198 196 197 199 201 198 196 197 197 194 189 196 201 181 189 261 256 233 230 227 220 219 223 222 219 220 218 222 253
180 186 187 187 188 193 200 203 205 204 209 212 210 208 203 200 198 202 204 202 200 199 200 199 192 190 195 182 170 182 261 266 231 224 208 211 217 215 219 225 220 221 224
188 191 196 194 193 195 194 189 196 203 209 214 214 213 209 205 202 203 205 204 204 203 207 204 196 193 199 195 183 169 188 224 245 224 212 212 212 212 217 220 225 226 227
208 198 197 197 198 195 191 198 201 207 216 218 215 213 211 210 208 206 205 207 208 208 210 209 204 200 190 195 201 207 196 169 177 244 256 222 215 216 218 228 234 228 226
223 199 201 202 206 200 198 203 210 221 228 226 217 217 215 215 215 212 209 209 212 212 212 208 207 204 203 200 193 182 208 217 188 185 239 240 227 220 218 222 227 228 226
338 196 197 207 217 211 207 209 214 225 228 228 225 224 220 218 217 216 213 213 215 216 214 211 210 210 209 209 206 193 179 183 196 196 215 221 228 229 223 222 225 226 225